Time,TemperatureF,DewpointF,PressureIn,WindDirection,WindDirectionDegrees,WindSpeedMPH,WindSpeedGustMPH,Humidity,HourlyPrecipIn,Conditions,Clouds,dailyrainin,SolarRadiationWatts/m^2,SoftwareType,DateUTC
2013-03-26 00:00:00,31.8,28.4,29.89,NNW,333,0.0,3.0,87,0.00,,,0.29,0.00,VWS V14.01,2013-03-26 04:00:00,
2013-03-26 00:05:00,31.8,28.4,29.89,NNW,340,1.0,2.0,87,0.00,,,0.00,0.00,VWS V14.01,2013-03-26 04:05:00,
2013-03-26 00:10:00,31.8,28.4,29.89,NNW,340,0.0,0.0,87,0.00,,,0.00,0.00,VWS V14.01,2013-03-26 04:10:00,
2013-03-26 00:15:00,31.7,28.3,29.90,NNW,340,0.0,0.0,87,0.00,,,0.00,0.00,VWS V14.01,2013-03-26 04:15:00,
2013-03-26 00:20:00,31.7,28.3,29.89,NNW,340,0.0,0.0,87,0.00,,,0.00,0.00,VWS V14.01,2013-03-26 04:20:00,
2013-03-26 00:26:00,31.7,28.3,29.90,NNW,340,0.0,2.0,87,0.00,,,0.00,0.00,VWS V14.01,2013-03-26 04:26:00,
2013-03-26 00:30:00,31.6,28.2,29.90,NNW,340,0.0,0.0,87,0.00,,OVC090,0.00,0.00,VWS V14.01,2013-03-26 04:30:00,
2013-03-26 00:31:00,31.6,28.2,29.90,NNW,340,0.0,0.0,87,0.00,,,0.00,0.00,VWS V14.01,2013-03-26 04:31:00,
2013-03-26 00:36:00,31.6,28.2,29.90,NNW,340,0.0,0.0,87,0.00,,,0.00,0.00,VWS V14.01,2013-03-26 04:36:00,
2013-03-26 00:40:00,31.6,28.2,29.90,NNW,340,0.0,0.0,87,0.00,,OVC090,0.00,0.00,VWS V14.01,2013-03-26 04:40:00,
2013-03-26 00:41:00,31.6,28.2,29.90,NNW,340,0.0,0.0,87,0.00,,,0.00,0.00,VWS V14.01,2013-03-26 04:41:00,
2013-03-26 00:46:00,31.6,28.2,29.90,NNW,340,0.0,0.0,87,0.00,,,0.00,0.00,VWS V14.01,2013-03-26 04:46:00,
2013-03-26 00:50:00,31.6,28.2,29.90,NNW,340,3.0,3.0,87,0.00,,OVC090,0.00,0.00,VWS V14.01,2013-03-26 04:50:00,
2013-03-26 00:51:00,31.6,28.2,29.90,NNW,340,1.0,3.0,87,0.00,,,0.00,0.00,VWS V14.01,2013-03-26 04:51:00,
2013-03-26 00:56:00,31.6,28.2,29.90,NW,320,1.0,3.0,87,0.00,,,0.00,0.00,VWS V14.01,2013-03-26 04:56:00,
2013-03-26 01:00:00,31.7,28.3,29.91,NW,320,0.0,2.0,87,0.00,,OVC090,0.00,0.00,VWS V14.01,2013-03-26 05:00:00,
2013-03-26 01:01:00,31.7,28.3,29.90,NW,320,0.0,0.0,87,0.00,,,0.00,0.00,VWS V14.01,2013-03-26 05:01:00,
2013-03-26 01:06:00,31.7,28.3,29.91,NW,320,0.0,0.0,87,0.00,,,0.00,0.00,VWS V14.01,2013-03-26 05:06:00,
2013-03-26 01:10:00,31.7,28.3,29.91,NW,320,0.0,0.0,87,0.00,,OVC090,0.00,0.00,VWS V14.01,2013-03-26 05:10:00,
2013-03-26 01:11:00,31.7,28.3,29.90,NW,320,0.0,0.0,87,0.00,,,0.00,0.00,VWS V14.01,2013-03-26 05:11:00,
2013-03-26 01:16:00,31.7,28.3,29.91,NW,320,0.0,2.0,87,0.00,,,0.00,0.00,VWS V14.01,2013-03-26 05:16:00,
2013-03-26 01:20:00,31.7,28.3,29.91,NW,320,2.0,2.0,87,0.00,,OVC090,0.00,0.00,VWS V14.01,2013-03-26 05:20:00,
2013-03-26 01:21:00,31.7,28.3,29.91,NW,320,1.0,2.0,87,0.00,,,0.00,0.00,VWS V14.01,2013-03-26 05:21:00,
2013-03-26 01:27:00,31.6,28.2,29.91,NW,318,2.0,2.0,87,0.00,,,0.00,0.00,VWS V14.01,2013-03-26 05:27:00,
2013-03-26 01:30:00,31.7,28.3,29.91,NW,318,0.0,2.0,87,0.00,,OVC090,0.00,0.00,VWS V14.01,2013-03-26 05:30:00,
2013-03-26 01:32:00,31.7,28.3,29.91,NW,318,1.0,3.0,87,0.00,,,0.00,0.00,VWS V14.01,2013-03-26 05:32:00,
2013-03-26 01:37:00,31.7,28.3,29.91,NW,318,0.0,0.0,87,0.00,,,0.00,0.00,VWS V14.01,2013-03-26 05:37:00,
2013-03-26 01:40:00,31.7,28.3,29.91,NW,318,0.0,1.0,87,0.00,,OVC090,0.00,0.00,VWS V14.01,2013-03-26 05:40:00,
2013-03-26 01:42:00,31.7,28.3,29.91,NW,318,1.0,2.0,87,0.00,,,0.00,0.00,VWS V14.01,2013-03-26 05:42:00,
2013-03-26 01:47:00,31.7,28.3,29.91,West,275,3.0,3.0,87,0.00,,,0.00,0.00,VWS V14.01,2013-03-26 05:47:00,
2013-03-26 01:50:00,31.6,28.2,29.92,West,281,0.0,2.0,87,0.00,,OVC090,0.00,0.00,VWS V14.01,2013-03-26 05:50:00,
2013-03-26 01:52:00,31.7,28.3,29.91,NNW,338,1.0,3.0,87,0.00,,,0.00,0.00,VWS V14.01,2013-03-26 05:52:00,
2013-03-26 01:57:00,31.7,28.3,29.91,NNW,338,0.0,3.0,87,0.00,,,0.00,0.00,VWS V14.01,2013-03-26 05:57:00,
2013-03-26 02:02:00,31.6,28.2,29.91,NNW,338,0.0,2.0,87,0.00,,,0.00,0.00,VWS V14.01,2013-03-26 06:02:00,
2013-03-26 02:07:00,31.6,28.2,29.91,NNW,338,0.0,0.0,87,0.00,,,0.00,0.00,VWS V14.01,2013-03-26 06:07:00,
2013-03-26 02:10:00,31.6,28.2,29.91,NNW,338,0.0,0.0,87,0.00,,OVC090,0.00,0.00,VWS V14.01,2013-03-26 06:10:00,
2013-03-26 02:12:00,31.6,28.2,29.91,NNW,338,0.0,1.0,87,0.00,,,0.00,0.00,VWS V14.01,2013-03-26 06:12:00,
2013-03-26 02:17:00,31.6,28.2,29.92,NNW,338,0.0,0.0,87,0.00,,,0.00,0.00,VWS V14.01,2013-03-26 06:17:00,
2013-03-26 02:20:00,31.6,28.2,29.92,NNW,338,1.0,2.0,87,0.00,,OVC090,0.00,0.00,VWS V14.01,2013-03-26 06:20:00,
2013-03-26 02:22:00,31.6,28.2,29.91,NNW,338,0.0,0.0,87,0.00,,,0.00,0.00,VWS V14.01,2013-03-26 06:22:00,
2013-03-26 02:27:00,31.6,28.2,29.92,NNW,338,0.0,0.0,87,0.00,,,0.00,0.00,VWS V14.01,2013-03-26 06:27:00,
2013-03-26 02:30:00,31.5,28.1,29.92,NNW,338,2.0,3.0,87,0.00,,OVC090,0.00,0.00,VWS V14.01,2013-03-26 06:30:00,
2013-03-26 02:32:00,31.5,28.1,29.92,NNW,338,0.0,2.0,87,0.00,,,0.00,0.00,VWS V14.01,2013-03-26 06:32:00,
2013-03-26 02:37:00,31.5,28.1,29.92,NNW,338,0.0,2.0,87,0.00,,,0.00,0.00,VWS V14.01,2013-03-26 06:37:00,
2013-03-26 02:40:00,31.5,28.1,29.92,NNW,338,0.0,1.0,87,0.00,,OVC090,0.00,0.00,VWS V14.01,2013-03-26 06:40:00,
2013-03-26 02:42:00,31.5,28.1,29.92,NNW,338,0.0,2.0,87,0.00,,,0.00,0.00,VWS V14.01,2013-03-26 06:42:00,
2013-03-26 02:47:00,31.5,28.1,29.92,NNW,338,0.0,0.0,87,0.00,,,0.00,0.00,VWS V14.01,2013-03-26 06:47:00,
2013-03-26 02:50:00,31.5,28.1,29.92,NNW,338,0.0,0.0,87,0.00,,OVC090,0.00,0.00,VWS V14.01,2013-03-26 06:50:00,
2013-03-26 02:52:00,31.5,28.1,29.92,NNW,338,0.0,0.0,87,0.00,,,0.00,0.00,VWS V14.01,2013-03-26 06:52:00,
2013-03-26 02:57:00,31.5,28.1,29.92,NNW,338,0.0,0.0,87,0.00,,,0.00,0.00,VWS V14.01,2013-03-26 06:57:00,
2013-03-26 03:00:00,31.5,28.1,29.92,NNW,338,0.0,0.0,87,0.00,,OVC090,0.00,0.00,VWS V14.01,2013-03-26 07:00:00,
2013-03-26 03:02:00,31.5,28.1,29.92,West,274,0.0,3.0,87,0.00,,,0.00,0.00,VWS V14.01,2013-03-26 07:02:00,
2013-03-26 03:07:00,31.4,28.0,29.92,West,274,0.0,1.0,87,0.00,,,0.00,0.00,VWS V14.01,2013-03-26 07:07:00,
2013-03-26 03:10:00,31.4,28.0,29.92,NW,304,0.0,4.0,87,0.00,,OVC090,0.00,0.00,VWS V14.01,2013-03-26 07:10:00,
2013-03-26 03:12:00,31.4,28.0,29.92,NW,304,0.0,0.0,87,0.00,,,0.00,0.00,VWS V14.01,2013-03-26 07:12:00,
2013-03-26 03:17:00,31.4,28.0,29.92,NW,304,0.0,2.0,87,0.00,,,0.00,0.00,VWS V14.01,2013-03-26 07:17:00,
2013-03-26 03:20:00,31.4,28.0,29.92,NW,304,0.0,0.0,87,0.00,,OVC090,0.00,0.00,VWS V14.01,2013-03-26 07:20:00,
2013-03-26 03:22:00,31.4,28.0,29.93,NW,304,0.0,0.0,87,0.00,,,0.00,0.00,VWS V14.01,2013-03-26 07:22:00,
2013-03-26 03:27:00,31.4,28.0,29.92,NW,304,0.0,0.0,87,0.00,,,0.00,0.00,VWS V14.01,2013-03-26 07:27:00,
2013-03-26 03:30:00,31.4,28.0,29.92,NW,304,0.0,1.0,87,0.00,,OVC090,0.00,0.00,VWS V14.01,2013-03-26 07:30:00,
2013-03-26 03:32:00,31.4,28.0,29.93,NW,304,0.0,0.0,87,0.00,,,0.00,0.00,VWS V14.01,2013-03-26 07:32:00,
2013-03-26 03:37:00,31.4,28.0,29.92,NW,304,0.0,0.0,87,0.00,,,0.00,0.00,VWS V14.01,2013-03-26 07:37:00,
2013-03-26 03:40:00,31.4,28.0,29.92,NW,304,0.0,0.0,87,0.00,,OVC090,0.00,0.00,VWS V14.01,2013-03-26 07:40:00,
2013-03-26 03:43:00,31.4,28.0,29.92,NW,304,0.0,0.0,87,0.00,,,0.00,0.00,VWS V14.01,2013-03-26 07:43:00,
2013-03-26 03:48:00,31.4,28.0,29.93,NW,304,0.0,2.0,87,0.00,,,0.00,0.00,VWS V14.01,2013-03-26 07:48:00,
2013-03-26 03:50:00,31.4,28.0,29.93,NW,304,2.0,3.0,87,0.00,,OVC090,0.00,0.00,VWS V14.01,2013-03-26 07:50:00,
2013-03-26 03:53:00,31.3,27.9,29.93,NW,304,0.0,2.0,87,0.00,,,0.00,0.00,VWS V14.01,2013-03-26 07:53:00,
2013-03-26 03:58:00,31.3,27.9,29.93,NW,304,1.0,3.0,87,0.00,,,0.00,0.00,VWS V14.01,2013-03-26 07:58:00,
2013-03-26 04:00:00,31.3,27.9,29.93,NW,304,0.0,0.0,87,0.00,,OVC090,0.00,0.00,VWS V14.01,2013-03-26 08:00:00,
2013-03-26 04:03:00,31.3,27.9,29.93,West,267,1.0,3.0,87,0.00,,,0.00,0.00,VWS V14.01,2013-03-26 08:03:00,
2013-03-26 04:08:00,31.3,27.9,29.93,NW,311,1.0,2.0,87,0.00,,,0.00,0.00,VWS V14.01,2013-03-26 08:08:00,
2013-03-26 04:10:00,31.3,27.9,29.93,NW,311,0.0,1.0,87,0.00,,OVC090,0.00,0.00,VWS V14.01,2013-03-26 08:10:00,
2013-03-26 04:13:00,31.3,27.9,29.93,NNW,342,2.0,3.0,87,0.00,,,0.00,0.00,VWS V14.01,2013-03-26 08:13:00,
2013-03-26 04:18:00,31.3,27.9,29.93,NNW,342,0.0,0.0,87,0.00,,,0.00,0.00,VWS V14.01,2013-03-26 08:18:00,
2013-03-26 04:20:00,31.3,27.9,29.93,NNW,342,2.0,2.0,87,0.00,,OVC090,0.00,0.00,VWS V14.01,2013-03-26 08:20:00,
2013-03-26 04:23:00,31.3,27.9,29.93,NNW,342,0.0,0.0,87,0.00,,,0.00,0.00,VWS V14.01,2013-03-26 08:23:00,
2013-03-26 04:28:00,31.3,27.9,29.93,NNW,342,0.0,0.0,87,0.00,,,0.00,0.00,VWS V14.01,2013-03-26 08:28:00,
2013-03-26 04:30:00,31.3,27.9,29.93,NNW,342,0.0,2.0,87,0.00,,OVC090,0.00,0.00,VWS V14.01,2013-03-26 08:30:00,
2013-03-26 04:33:00,31.3,27.9,29.93,WSW,258,1.0,2.0,87,0.00,,,0.00,0.00,VWS V14.01,2013-03-26 08:33:00,
2013-03-26 04:38:00,31.3,27.9,29.94,West,266,2.0,2.0,87,0.00,,,0.00,0.00,VWS V14.01,2013-03-26 08:38:00,
2013-03-26 04:40:00,31.3,27.9,29.93,West,266,3.0,3.0,87,0.00,,OVC090,0.00,0.00,VWS V14.01,2013-03-26 08:40:00,
2013-03-26 04:43:00,31.3,27.9,29.93,West,266,2.0,3.0,87,0.00,,,0.00,0.00,VWS V14.01,2013-03-26 08:43:00,
2013-03-26 04:48:00,31.3,27.9,29.94,West,259,1.0,2.0,87,0.00,,,0.00,0.00,VWS V14.01,2013-03-26 08:48:00,
2013-03-26 04:50:00,31.3,27.9,29.93,West,259,1.0,2.0,87,0.00,,OVC090,0.00,0.00,VWS V14.01,2013-03-26 08:50:00,
2013-03-26 04:53:00,31.3,27.9,29.94,West,259,0.0,0.0,87,0.00,,,0.00,0.00,VWS V14.01,2013-03-26 08:53:00,
2013-03-26 04:58:00,31.3,27.9,29.94,WNW,303,2.0,3.0,87,0.00,,,0.00,0.00,VWS V14.01,2013-03-26 08:58:00,
2013-03-26 05:00:00,31.3,27.9,29.94,WNW,303,4.0,4.0,87,0.00,,OVC090,0.00,0.00,VWS V14.01,2013-03-26 09:00:00,
2013-03-26 05:03:00,31.4,28.0,29.94,WNW,296,1.0,1.0,87,0.00,,,0.00,0.00,VWS V14.01,2013-03-26 09:03:00,
2013-03-26 05:08:00,31.4,28.0,29.94,NNW,332,2.0,4.0,87,0.00,,,0.00,0.00,VWS V14.01,2013-03-26 09:08:00,
2013-03-26 05:10:00,31.4,28.0,29.94,NNW,332,0.0,2.0,87,0.00,,OVC090,0.00,0.00,VWS V14.01,2013-03-26 09:10:00,
2013-03-26 05:13:00,31.4,28.0,29.94,NNW,332,0.0,0.0,87,0.00,,,0.00,0.00,VWS V14.01,2013-03-26 09:13:00,
2013-03-26 05:18:00,31.4,28.0,29.94,NNW,331,2.0,3.0,87,0.00,,,0.00,0.00,VWS V14.01,2013-03-26 09:18:00,
2013-03-26 05:20:00,31.4,28.0,29.94,NNW,331,0.0,2.0,87,0.00,,OVC090,0.00,0.00,VWS V14.01,2013-03-26 09:20:00,
2013-03-26 05:23:00,31.4,28.0,29.95,NNW,331,0.0,0.0,87,0.00,,,0.00,0.00,VWS V14.01,2013-03-26 09:23:00,
2013-03-26 05:28:00,31.4,28.0,29.95,NNW,331,0.0,0.0,87,0.00,,,0.00,0.00,VWS V14.01,2013-03-26 09:28:00,
2013-03-26 05:30:00,31.4,28.0,29.95,NNW,331,0.0,0.0,87,0.00,,OVC090,0.00,0.00,VWS V14.01,2013-03-26 09:30:00,
2013-03-26 05:33:00,31.4,28.0,29.94,NNW,331,0.0,0.0,87,0.00,,OVC065,0.00,0.00,VWS V14.01,2013-03-26 09:33:00,
2013-03-26 05:38:00,31.4,28.0,29.94,NNW,331,0.0,0.0,87,0.00,,OVC065,0.00,0.00,VWS V14.01,2013-03-26 09:38:00,
2013-03-26 05:40:00,31.4,28.0,29.95,NNW,331,0.0,0.0,87,0.00,,OVC090,0.00,0.00,VWS V14.01,2013-03-26 09:40:00,
2013-03-26 05:43:00,31.4,28.0,29.95,NNW,331,0.0,0.0,87,0.00,,OVC065,0.00,0.00,VWS V14.01,2013-03-26 09:43:00,
2013-03-26 05:48:00,31.4,28.0,29.95,NNW,331,0.0,1.0,87,0.00,,OVC065,0.00,0.00,VWS V14.01,2013-03-26 09:48:00,
2013-03-26 05:50:00,31.4,28.0,29.95,NNW,331,0.0,0.0,87,0.00,,OVC090,0.00,0.00,VWS V14.01,2013-03-26 09:50:00,
2013-03-26 05:53:00,31.4,28.0,29.95,NNW,331,1.0,2.0,87,0.00,,OVC065,0.00,0.00,VWS V14.01,2013-03-26 09:53:00,
2013-03-26 05:58:00,31.4,28.0,29.95,NNW,331,1.0,3.0,87,0.00,,OVC065,0.00,0.00,VWS V14.01,2013-03-26 09:58:00,
2013-03-26 06:00:00,31.4,28.0,29.95,NNW,331,0.0,0.0,87,0.00,,OVC090,0.00,0.00,VWS V14.01,2013-03-26 10:00:00,
2013-03-26 06:03:00,31.4,28.0,29.96,NNW,331,0.0,0.0,87,0.00,,OVC065,0.00,0.00,VWS V14.01,2013-03-26 10:03:00,
2013-03-26 06:08:00,31.4,28.0,29.96,NNW,331,0.0,0.0,87,0.00,,OVC065,0.00,0.00,VWS V14.01,2013-03-26 10:08:00,
2013-03-26 06:10:00,31.4,28.0,29.96,NNW,331,2.0,3.0,87,0.00,,OVC090,0.00,0.00,VWS V14.01,2013-03-26 10:10:00,
2013-03-26 06:13:00,31.3,27.9,29.96,NNW,331,2.0,2.0,87,0.00,,OVC065,0.00,0.00,VWS V14.01,2013-03-26 10:13:00,
2013-03-26 06:18:00,31.3,27.9,29.96,NNW,331,1.0,1.0,87,0.00,,OVC065,0.00,0.00,VWS V14.01,2013-03-26 10:18:00,
2013-03-26 06:20:00,31.3,27.9,29.96,NNW,334,3.0,4.0,87,0.00,,OVC090,0.00,0.00,VWS V14.01,2013-03-26 10:20:00,
2013-03-26 06:23:00,31.3,27.9,29.97,NW,325,0.0,4.0,87,0.00,,OVC065,0.00,0.00,VWS V14.01,2013-03-26 10:23:00,
2013-03-26 06:28:00,31.3,27.9,29.97,NW,325,0.0,1.0,87,0.00,,OVC065,0.00,0.00,VWS V14.01,2013-03-26 10:28:00,
2013-03-26 06:30:00,31.3,27.9,29.97,NW,325,1.0,3.0,87,0.00,,OVC090,0.00,0.00,VWS V14.01,2013-03-26 10:30:00,
2013-03-26 06:33:00,31.3,27.9,29.97,NW,325,0.0,1.0,87,0.00,,OVC005,0.00,0.00,VWS V14.01,2013-03-26 10:33:00,
2013-03-26 06:38:00,31.2,27.8,29.97,West,266,1.0,2.0,87,0.00,,OVC005,0.00,0.00,VWS V14.01,2013-03-26 10:38:00,
2013-03-26 06:40:00,31.2,27.8,29.97,West,266,0.0,2.0,87,0.00,,OVC090,0.00,0.00,VWS V14.01,2013-03-26 10:40:00,
2013-03-26 06:43:00,31.2,27.8,29.98,WNW,293,1.0,3.0,87,0.00,,OVC005,0.00,0.00,VWS V14.01,2013-03-26 10:43:00,
2013-03-26 06:48:00,31.2,27.8,29.98,West,281,1.0,3.0,87,0.00,,OVC005,0.00,0.00,VWS V14.01,2013-03-26 10:48:00,
2013-03-26 06:53:00,31.2,27.8,29.98,WNW,302,4.0,4.0,87,0.00,,OVC005,0.00,0.00,VWS V14.01,2013-03-26 10:53:00,
2013-03-26 06:58:00,31.2,27.8,29.98,West,276,2.0,4.0,87,0.00,,OVC005,0.00,0.00,VWS V14.01,2013-03-26 10:58:00,
2013-03-26 07:00:00,31.2,27.8,29.98,WNW,292,3.0,5.0,87,0.00,,OVC090,0.00,0.00,VWS V14.01,2013-03-26 11:00:00,
2013-03-26 07:03:00,31.2,27.8,29.98,WNW,294,2.0,4.0,87,0.00,,OVC005,0.00,0.00,VWS V14.01,2013-03-26 11:03:00,
2013-03-26 07:08:00,31.2,27.8,29.98,WNW,297,2.0,4.0,87,0.00,,OVC005,0.00,0.00,VWS V14.01,2013-03-26 11:08:00,
2013-03-26 07:10:00,31.2,27.8,29.98,NW,323,2.0,3.0,87,0.00,,OVC090,0.00,0.00,VWS V14.01,2013-03-26 11:10:00,
2013-03-26 07:13:00,31.2,27.8,29.98,West,281,7.0,7.0,87,0.00,,OVC005,0.00,0.00,VWS V14.01,2013-03-26 11:13:00,
2013-03-26 07:18:00,31.2,27.8,29.98,NW,313,2.0,5.0,87,0.00,,OVC005,0.00,0.00,VWS V14.01,2013-03-26 11:18:00,
2013-03-26 07:20:00,31.2,27.8,29.98,WNW,300,3.0,4.0,87,0.00,,OVC090,0.00,0.00,VWS V14.01,2013-03-26 11:20:00,
2013-03-26 07:24:00,31.2,27.8,29.98,NW,309,4.0,6.0,87,0.00,,OVC005,0.00,0.00,VWS V14.01,2013-03-26 11:24:00,
2013-03-26 07:29:00,31.3,27.9,29.99,NW,325,2.0,8.0,87,0.00,,OVC005,0.00,0.00,VWS V14.01,2013-03-26 11:29:00,
2013-03-26 07:30:00,31.3,27.9,29.99,WNW,291,3.0,5.0,87,0.00,,OVC090,0.00,0.00,VWS V14.01,2013-03-26 11:30:00,
2013-03-26 07:34:00,31.3,27.9,29.99,West,273,1.0,3.0,87,0.00,,OVC070,0.00,5.00,VWS V14.01,2013-03-26 11:34:00,
2013-03-26 07:39:00,31.3,27.9,29.99,NW,320,1.0,4.0,87,0.00,,OVC070,0.00,7.00,VWS V14.01,2013-03-26 11:39:00,
2013-03-26 07:40:00,31.4,28.0,29.99,NW,320,0.0,3.0,87,0.00,,OVC090,0.00,7.00,VWS V14.01,2013-03-26 11:40:00,
2013-03-26 07:44:00,31.4,28.0,30.00,NNW,348,2.0,3.0,87,0.00,,OVC070,0.00,11.00,VWS V14.01,2013-03-26 11:44:00,
2013-03-26 07:49:00,31.4,28.0,30.00,West,280,3.0,3.0,87,0.00,,OVC070,0.00,12.00,VWS V14.01,2013-03-26 11:49:00,
2013-03-26 07:50:00,31.4,28.0,30.00,West,280,2.0,3.0,87,0.00,,OVC090,0.00,14.00,VWS V14.01,2013-03-26 11:50:00,
2013-03-26 07:54:00,31.4,28.0,30.00,West,280,2.0,3.0,87,0.00,,OVC070,0.00,14.00,VWS V14.01,2013-03-26 11:54:00,
2013-03-26 07:59:00,31.5,28.1,30.00,NW,324,2.0,3.0,87,0.00,,OVC070,0.00,21.00,VWS V14.01,2013-03-26 11:59:00,
2013-03-26 08:00:00,31.5,28.1,30.00,NW,325,2.0,3.0,87,0.00,,OVC090,0.00,21.00,VWS V14.01,2013-03-26 12:00:00,
2013-03-26 08:04:00,31.6,28.2,30.00,NW,321,3.0,6.0,87,0.00,,OVC070,0.00,25.00,VWS V14.01,2013-03-26 12:04:00,
2013-03-26 08:09:00,31.6,28.2,30.01,NW,312,2.0,4.0,87,0.00,,OVC070,0.00,28.00,VWS V14.01,2013-03-26 12:09:00,
2013-03-26 08:10:00,31.6,28.2,30.01,NW,312,1.0,4.0,87,0.00,,OVC090,0.00,28.00,VWS V14.01,2013-03-26 12:10:00,
2013-03-26 08:14:00,31.7,28.0,30.01,NNW,333,2.0,5.0,86,0.00,,OVC070,0.00,30.00,VWS V14.01,2013-03-26 12:14:00,
2013-03-26 08:19:00,31.7,28.0,30.01,SW,231,3.0,4.0,86,0.00,,OVC070,0.00,33.00,VWS V14.01,2013-03-26 12:19:00,
2013-03-26 08:20:00,31.7,28.0,30.01,WNW,282,4.0,4.0,86,0.00,,OVC090,0.00,35.00,VWS V14.01,2013-03-26 12:20:00,
2013-03-26 08:24:00,31.8,28.1,30.01,NW,322,3.0,4.0,86,0.00,,OVC070,0.00,39.00,VWS V14.01,2013-03-26 12:24:00,
2013-03-26 08:29:00,31.8,28.1,30.01,West,281,3.0,4.0,86,0.00,,OVC070,0.00,44.00,VWS V14.01,2013-03-26 12:29:00,
2013-03-26 08:30:00,31.9,28.2,30.01,West,281,0.0,4.0,86,0.00,,OVC090,0.00,44.00,VWS V14.01,2013-03-26 12:30:00,
2013-03-26 08:34:00,31.9,28.2,30.02,NNW,329,0.0,4.0,86,0.00,,OVC070,0.00,47.00,VWS V14.01,2013-03-26 12:34:00,
2013-03-26 08:39:00,32.0,28.3,30.02,NNW,340,3.0,5.0,86,0.00,,OVC070,0.00,54.00,VWS V14.01,2013-03-26 12:39:00,
2013-03-26 08:40:00,32.0,28.3,30.02,NNW,340,0.0,4.0,86,0.00,,OVC090,0.00,54.00,VWS V14.01,2013-03-26 12:40:00,
2013-03-26 08:44:00,32.0,28.3,30.02,WNW,303,3.0,3.0,86,0.00,,OVC070,0.00,60.00,VWS V14.01,2013-03-26 12:44:00,
2013-03-26 08:49:00,32.0,28.3,30.02,NW,322,0.0,3.0,86,0.00,,OVC070,0.00,65.00,VWS V14.01,2013-03-26 12:49:00,
2013-03-26 08:54:00,32.2,28.5,30.02,WNW,298,2.0,5.0,86,0.00,,OVC070,0.00,69.00,VWS V14.01,2013-03-26 12:54:00,
2013-03-26 08:59:00,32.3,28.6,30.02,NNW,342,2.0,5.0,86,0.00,,OVC070,0.00,74.00,VWS V14.01,2013-03-26 12:59:00,
2013-03-26 09:00:00,32.3,28.6,30.02,NNW,342,3.0,4.0,86,0.00,,OVC090,0.00,77.00,VWS V14.01,2013-03-26 13:00:00,
2013-03-26 09:04:00,32.4,28.4,30.02,NW,316,2.0,2.0,85,0.00,,OVC070,0.00,90.00,VWS V14.01,2013-03-26 13:04:00,
2013-03-26 09:09:00,32.6,28.6,30.02,WNW,283,3.0,5.0,85,0.00,,OVC070,0.00,100.00,VWS V14.01,2013-03-26 13:09:00,
2013-03-26 09:10:00,32.6,28.6,30.02,WNW,290,2.0,5.0,85,0.00,,OVC090,0.00,100.00,VWS V14.01,2013-03-26 13:10:00,
2013-03-26 09:14:00,32.8,28.8,30.03,WNW,290,0.0,2.0,85,0.00,,OVC070,0.00,93.00,VWS V14.01,2013-03-26 13:14:00,
2013-03-26 09:19:00,32.9,28.6,30.03,NNW,329,4.0,6.0,84,0.00,,OVC070,0.00,98.00,VWS V14.01,2013-03-26 13:19:00,
2013-03-26 09:20:00,32.9,28.6,30.03,NNW,329,4.0,6.0,84,0.00,,OVC090,0.00,98.00,VWS V14.01,2013-03-26 13:20:00,
2013-03-26 09:24:00,33.0,28.7,30.03,NW,313,3.0,3.0,84,0.00,,OVC070,0.00,105.00,VWS V14.01,2013-03-26 13:24:00,
2013-03-26 09:29:00,33.0,28.4,30.03,WNW,298,3.0,5.0,83,0.00,,OVC070,0.00,123.00,VWS V14.01,2013-03-26 13:29:00,
2013-03-26 09:30:00,33.0,28.4,30.03,NW,305,6.0,6.0,83,0.00,,OVC090,0.00,123.00,VWS V14.01,2013-03-26 13:30:00,
2013-03-26 09:34:00,33.1,28.5,30.04,West,275,1.0,4.0,83,0.00,,,0.00,118.00,VWS V14.01,2013-03-26 13:34:00,
2013-03-26 09:39:00,33.2,28.6,30.04,West,275,1.0,2.0,83,0.00,,,0.00,121.00,VWS V14.01,2013-03-26 13:39:00,
2013-03-26 09:40:00,33.3,28.4,30.04,West,275,3.0,3.0,82,0.00,,OVC090,0.00,121.00,VWS V14.01,2013-03-26 13:40:00,
2013-03-26 09:44:00,33.3,28.4,30.04,NNW,335,5.0,6.0,82,0.00,,,0.00,146.00,VWS V14.01,2013-03-26 13:44:00,
2013-03-26 09:50:00,33.4,28.5,30.04,West,281,1.0,6.0,82,0.00,,,0.00,137.00,VWS V14.01,2013-03-26 13:50:00,
2013-03-26 09:55:00,33.4,28.2,30.04,NNW,346,1.0,4.0,81,0.00,,,0.00,125.00,VWS V14.01,2013-03-26 13:55:00,
2013-03-26 10:00:00,33.5,28.3,30.04,NW,313,1.0,3.0,81,0.00,,,0.00,130.00,VWS V14.01,2013-03-26 14:00:00,
2013-03-26 10:05:00,33.6,28.4,30.05,NW,308,2.0,4.0,81,0.00,,,0.00,111.00,VWS V14.01,2013-03-26 14:05:00,
2013-03-26 10:10:00,33.6,28.4,30.05,WNW,295,4.0,5.0,81,0.00,,,0.00,114.00,VWS V14.01,2013-03-26 14:10:00,
2013-03-26 10:15:00,33.5,28.3,30.05,NW,325,3.0,6.0,81,0.00,,,0.00,137.00,VWS V14.01,2013-03-26 14:15:00,
2013-03-26 10:20:00,33.4,28.5,30.05,NW,313,4.0,5.0,82,0.00,,,0.00,155.00,VWS V14.01,2013-03-26 14:20:00,
2013-03-26 10:25:00,33.2,28.3,30.05,NNW,340,3.0,4.0,82,0.00,,,0.00,125.00,VWS V14.01,2013-03-26 14:25:00,
2013-03-26 10:30:00,33.2,28.3,30.05,NNW,335,3.0,4.0,82,0.00,,,0.00,160.00,VWS V14.01,2013-03-26 14:30:00,
2013-03-26 10:35:00,33.2,28.6,30.05,NNW,339,0.0,2.0,83,0.00,,,0.00,146.00,VWS V14.01,2013-03-26 14:35:00,
2013-03-26 10:40:00,33.3,28.7,30.06,NNW,328,3.0,3.0,83,0.00,,,0.00,171.00,VWS V14.01,2013-03-26 14:40:00,
2013-03-26 10:45:00,33.4,28.8,30.05,NW,305,2.0,2.0,83,0.00,,,0.00,174.00,VWS V14.01,2013-03-26 14:45:00,
2013-03-26 10:50:00,33.6,29.0,30.05,West,261,4.0,4.0,83,0.00,,,0.00,176.00,VWS V14.01,2013-03-26 14:50:00,
2013-03-26 10:55:00,34.0,29.1,30.06,NNW,345,4.0,4.0,82,0.00,,,0.00,181.00,VWS V14.01,2013-03-26 14:55:00,
2013-03-26 11:00:00,34.1,29.2,30.06,NW,309,7.0,8.0,82,0.00,,,0.00,179.00,VWS V14.01,2013-03-26 15:00:00,
2013-03-26 11:05:00,34.2,29.0,30.06,West,274,2.0,7.0,81,0.00,,,0.00,172.00,VWS V14.01,2013-03-26 15:05:00,
2013-03-26 11:10:00,34.4,29.2,30.07,WNW,299,3.0,7.0,81,0.00,,,0.00,211.00,VWS V14.01,2013-03-26 15:10:00,
2013-03-26 11:15:00,34.4,29.2,30.07,NW,309,4.0,6.0,81,0.00,,,0.00,246.00,VWS V14.01,2013-03-26 15:15:00,
2013-03-26 11:20:00,34.4,29.2,30.06,NW,304,3.0,5.0,81,0.00,,,0.00,315.00,VWS V14.01,2013-03-26 15:20:00,
2013-03-26 11:25:00,34.4,29.2,30.07,NW,322,1.0,6.0,81,0.00,,,0.00,348.00,VWS V14.01,2013-03-26 15:25:00,
2013-03-26 11:30:00,34.9,29.7,30.07,West,272,5.0,7.0,81,0.00,,,0.00,297.00,VWS V14.01,2013-03-26 15:30:00,
2013-03-26 11:35:00,34.8,29.3,30.07,WNW,301,1.0,8.0,80,0.00,,,0.00,200.00,VWS V14.01,2013-03-26 15:35:00,
2013-03-26 11:40:00,34.8,29.3,30.07,NW,313,5.0,9.0,80,0.00,,,0.00,193.00,VWS V14.01,2013-03-26 15:40:00,
2013-03-26 11:45:00,34.7,29.2,30.07,West,272,4.0,6.0,80,0.00,,,0.00,218.00,VWS V14.01,2013-03-26 15:45:00,
2013-03-26 11:50:00,34.7,29.2,30.07,NNW,327,6.0,6.0,80,0.00,,,0.00,267.00,VWS V14.01,2013-03-26 15:50:00,
2013-03-26 11:55:00,34.7,29.2,30.07,WNW,294,6.0,7.0,80,0.00,,,0.00,274.00,VWS V14.01,2013-03-26 15:55:00,
2013-03-26 12:00:00,34.8,29.0,30.07,NW,324,1.0,6.0,79,0.00,,,0.00,294.00,VWS V14.01,2013-03-26 16:00:00,
2013-03-26 12:05:00,35.0,29.2,30.07,NW,312,2.0,4.0,79,0.00,,,0.00,244.00,VWS V14.01,2013-03-26 16:05:00,
2013-03-26 12:10:00,35.1,29.6,30.07,WNW,283,0.0,3.0,80,0.00,,,0.00,269.00,VWS V14.01,2013-03-26 16:10:00,
2013-03-26 12:15:00,35.3,29.8,30.08,WSW,240,3.0,5.0,80,0.00,,,0.00,295.00,VWS V14.01,2013-03-26 16:15:00,
2013-03-26 12:20:00,35.3,29.8,30.08,West,279,7.0,7.0,80,0.00,,,0.00,320.00,VWS V14.01,2013-03-26 16:20:00,
2013-03-26 12:25:00,35.1,29.6,30.08,WNW,295,2.0,3.0,80,0.00,,,0.00,188.00,VWS V14.01,2013-03-26 16:25:00,
2013-03-26 12:30:00,35.0,29.5,30.08,NW,305,3.0,6.0,80,0.00,,,0.00,243.00,VWS V14.01,2013-03-26 16:30:00,
2013-03-26 12:35:00,35.1,29.6,30.08,WNW,286,0.0,3.0,80,0.00,,,0.00,229.00,VWS V14.01,2013-03-26 16:35:00,
2013-03-26 12:40:00,35.3,29.5,30.08,WNW,297,2.0,7.0,79,0.00,,,0.00,221.00,VWS V14.01,2013-03-26 16:40:00,
2013-03-26 12:45:00,35.2,29.4,30.08,NW,323,6.0,7.0,79,0.00,,,0.00,209.00,VWS V14.01,2013-03-26 16:45:00,
2013-03-26 12:50:00,35.3,29.5,30.08,NW,319,3.0,7.0,79,0.00,,,0.00,290.00,VWS V14.01,2013-03-26 16:50:00,
2013-03-26 12:55:00,35.4,29.2,30.08,NW,323,3.0,5.0,78,0.00,,,0.00,178.00,VWS V14.01,2013-03-26 16:55:00,
2013-03-26 13:00:00,35.4,29.2,30.08,West,275,6.0,7.0,78,0.00,,,0.00,204.00,VWS V14.01,2013-03-26 17:00:00,
2013-03-26 13:05:00,35.3,29.1,30.08,WNW,298,5.0,6.0,78,0.00,,,0.00,192.00,VWS V14.01,2013-03-26 17:05:00,
2013-03-26 13:10:00,35.4,29.2,30.08,NNW,341,4.0,4.0,78,0.00,,,0.00,223.00,VWS V14.01,2013-03-26 17:10:00,
2013-03-26 13:15:00,35.6,29.4,30.08,NW,322,2.0,5.0,78,0.00,,,0.00,253.00,VWS V14.01,2013-03-26 17:15:00,
2013-03-26 13:20:00,35.7,29.5,30.08,NW,313,2.0,5.0,78,0.00,,,0.00,271.00,VWS V14.01,2013-03-26 17:20:00,
2013-03-26 13:25:00,35.7,29.2,30.08,North,349,3.0,9.0,77,0.00,,,0.00,213.00,VWS V14.01,2013-03-26 17:25:00,
2013-03-26 13:30:00,35.7,29.2,30.08,West,272,5.0,7.0,77,0.00,,OVC090,0.00,243.00,VWS V14.01,2013-03-26 17:30:00,
2013-03-26 13:31:00,35.7,29.5,30.08,WNW,288,2.0,7.0,78,0.00,,,0.00,243.00,VWS V14.01,2013-03-26 17:31:00,
2013-03-26 13:36:00,35.9,29.7,30.08,NNW,327,4.0,7.0,78,0.00,,,0.00,232.00,VWS V14.01,2013-03-26 17:36:00,
2013-03-26 13:40:00,36.0,29.8,30.09,NW,304,3.0,10.0,78,0.00,,OVC090,0.00,218.00,VWS V14.01,2013-03-26 17:40:00,
2013-03-26 13:41:00,35.9,29.7,30.08,NW,304,1.0,10.0,78,0.00,,,0.00,218.00,VWS V14.01,2013-03-26 17:41:00,
2013-03-26 13:45:00,35.8,29.3,30.08,NNW,332,1.0,10.0,77,0.00,,,0.00,167.00,VWS V14.01,2013-03-26 17:45:00,
2013-03-26 13:50:00,35.7,29.2,30.08,WNW,298,1.0,8.0,77,0.00,,OVC090,0.00,214.00,VWS V14.01,2013-03-26 17:50:00,
2013-03-26 13:51:00,35.7,29.2,30.08,WNW,298,2.0,4.0,77,0.00,,,0.00,202.00,VWS V14.01,2013-03-26 17:51:00,
2013-03-26 13:56:00,36.0,29.5,30.09,NW,321,2.0,6.0,77,0.00,,,0.00,234.00,VWS V14.01,2013-03-26 17:56:00,
2013-03-26 14:00:00,36.0,29.5,30.09,NW,315,3.0,6.0,77,0.00,,OVC090,0.00,278.00,VWS V14.01,2013-03-26 18:00:00,
2013-03-26 14:01:00,36.0,29.5,30.09,NNW,344,4.0,6.0,77,0.00,,,0.00,271.00,VWS V14.01,2013-03-26 18:01:00,
2013-03-26 14:06:00,36.1,29.6,30.09,NW,310,4.0,4.0,77,0.00,,,0.00,276.00,VWS V14.01,2013-03-26 18:06:00,
2013-03-26 14:10:00,36.4,29.9,30.08,West,273,2.0,6.0,77,0.00,,OVC090,0.00,214.00,VWS V14.01,2013-03-26 18:10:00,
2013-03-26 14:11:00,36.5,30.0,30.08,NW,319,5.0,6.0,77,0.00,,,0.00,214.00,VWS V14.01,2013-03-26 18:11:00,
2013-03-26 14:16:00,36.5,29.7,30.09,WNW,289,4.0,5.0,76,0.00,,,0.00,359.00,VWS V14.01,2013-03-26 18:16:00,
2013-03-26 14:20:00,36.8,30.0,30.09,NW,325,3.0,7.0,76,0.00,,OVC090,0.00,304.00,VWS V14.01,2013-03-26 18:20:00,
2013-03-26 14:21:00,36.8,30.0,30.09,SW,225,3.0,6.0,76,0.00,,,0.00,297.00,VWS V14.01,2013-03-26 18:21:00,
2013-03-26 14:26:00,36.9,30.0,30.09,WNW,303,2.0,6.0,76,0.00,,,0.00,304.00,VWS V14.01,2013-03-26 18:26:00,
2013-03-26 14:30:00,37.0,29.8,30.09,WSW,250,3.0,5.0,75,0.00,,OVC090,0.00,148.00,VWS V14.01,2013-03-26 18:30:00,
2013-03-26 14:31:00,37.0,29.8,30.09,WNW,286,4.0,5.0,75,0.00,,OVC015,0.00,181.00,VWS V14.01,2013-03-26 18:31:00,
2013-03-26 14:36:00,37.0,29.8,30.09,NW,319,4.0,7.0,75,0.00,,OVC015,0.00,279.00,VWS V14.01,2013-03-26 18:36:00,
2013-03-26 14:40:00,37.1,29.9,30.09,NW,314,3.0,7.0,75,0.00,,OVC090,0.00,292.00,VWS V14.01,2013-03-26 18:40:00,
2013-03-26 14:41:00,37.1,29.9,30.09,NW,314,4.0,7.0,75,0.00,,OVC015,0.00,292.00,VWS V14.01,2013-03-26 18:41:00,
2013-03-26 14:46:00,37.4,30.2,30.09,WNW,288,2.0,7.0,75,0.00,,OVC015,0.00,251.00,VWS V14.01,2013-03-26 18:46:00,
2013-03-26 14:50:00,37.6,30.1,30.09,WNW,282,3.0,6.0,74,0.00,,OVC090,0.00,311.00,VWS V14.01,2013-03-26 18:50:00,
2013-03-26 14:51:00,37.6,30.1,30.08,West,272,2.0,4.0,74,0.00,,OVC015,0.00,302.00,VWS V14.01,2013-03-26 18:51:00,
2013-03-26 14:56:00,37.8,29.9,30.09,WNW,291,5.0,6.0,73,0.00,,OVC015,0.00,204.00,VWS V14.01,2013-03-26 18:56:00,
2013-03-26 15:00:00,37.8,29.6,30.09,WNW,302,3.0,5.0,72,0.00,,OVC090,0.00,244.00,VWS V14.01,2013-03-26 19:00:00,
2013-03-26 15:01:00,37.8,29.6,30.09,WSW,247,4.0,5.0,72,0.00,,OVC015,0.00,227.00,VWS V14.01,2013-03-26 19:01:00,
2013-03-26 15:06:00,37.8,29.6,30.08,NNW,328,4.0,7.0,72,0.00,,OVC015,0.00,197.00,VWS V14.01,2013-03-26 19:06:00,
2013-03-26 15:10:00,37.9,29.4,30.08,NW,309,3.0,9.0,71,0.00,,OVC090,0.00,220.00,VWS V14.01,2013-03-26 19:10:00,
2013-03-26 15:12:00,37.9,29.4,30.08,WNW,302,4.0,8.0,71,0.00,,OVC015,0.00,232.00,VWS V14.01,2013-03-26 19:12:00,
2013-03-26 15:17:00,38.4,29.5,30.08,WNW,303,3.0,9.0,70,0.00,,OVC015,0.00,487.00,VWS V14.01,2013-03-26 19:17:00,
2013-03-26 15:20:00,38.8,29.9,30.08,WSW,257,6.0,13.0,70,0.00,,OVC090,0.00,454.00,VWS V14.01,2013-03-26 19:20:00,
2013-03-26 15:22:00,38.9,30.0,30.08,NW,317,10.0,14.0,70,0.00,,OVC015,0.00,399.00,VWS V14.01,2013-03-26 19:22:00,
2013-03-26 15:27:00,39.1,29.1,30.08,North,350,10.0,12.0,67,0.00,,OVC015,0.00,401.00,VWS V14.01,2013-03-26 19:27:00,
2013-03-26 15:30:00,39.0,29.0,30.08,NNW,327,6.0,11.0,67,0.00,,OVC090,0.00,320.00,VWS V14.01,2013-03-26 19:30:00,
2013-03-26 15:32:00,39.1,29.1,30.08,NW,308,5.0,8.0,67,0.00,,OVC015,0.00,380.00,VWS V14.01,2013-03-26 19:32:00,
2013-03-26 15:37:00,39.3,29.6,30.08,NW,316,4.0,8.0,68,0.00,,OVC029,0.00,288.00,VWS V14.01,2013-03-26 19:37:00,
2013-03-26 15:40:00,39.3,28.9,30.08,NW,321,7.0,10.0,66,0.00,,OVC090,0.00,339.00,VWS V14.01,2013-03-26 19:40:00,
2013-03-26 15:42:00,39.3,28.9,30.08,West,274,7.0,10.0,66,0.00,,OVC029,0.00,316.00,VWS V14.01,2013-03-26 19:42:00,
2013-03-26 15:47:00,39.5,29.1,30.08,NNW,347,4.0,8.0,66,0.00,,OVC029,0.00,260.00,VWS V14.01,2013-03-26 19:47:00,
2013-03-26 15:50:00,39.4,28.6,30.08,North,355,7.0,9.0,65,0.00,,OVC090,0.00,330.00,VWS V14.01,2013-03-26 19:50:00,
2013-03-26 15:52:00,39.5,28.7,30.08,NW,326,2.0,8.0,65,0.00,,OVC029,0.00,341.00,VWS V14.01,2013-03-26 19:52:00,
2013-03-26 15:57:00,39.7,28.9,30.08,NW,313,4.0,12.0,65,0.00,,OVC029,0.00,350.00,VWS V14.01,2013-03-26 19:57:00,
2013-03-26 16:00:00,39.8,28.6,30.07,NNW,346,7.0,7.0,64,0.00,,OVC090,0.00,302.00,VWS V14.01,2013-03-26 20:00:00,
2013-03-26 16:02:00,39.8,28.6,30.08,WSW,241,2.0,9.0,64,0.00,,OVC029,0.00,334.00,VWS V14.01,2013-03-26 20:02:00,
2013-03-26 16:07:00,39.5,28.0,30.08,NW,307,5.0,11.0,63,0.00,,OVC029,0.00,281.00,VWS V14.01,2013-03-26 20:07:00,
2013-03-26 16:10:00,40.2,29.8,30.08,NNW,330,2.0,6.0,66,0.00,,OVC090,0.00,281.00,VWS V14.01,2013-03-26 20:10:00,
2013-03-26 16:12:00,40.8,30.3,30.08,WNW,300,4.0,5.0,66,0.00,,OVC029,0.00,726.00,VWS V14.01,2013-03-26 20:12:00,
2013-03-26 16:17:00,40.7,29.1,30.08,NNW,329,8.0,8.0,63,0.00,,OVC029,0.00,274.00,VWS V14.01,2013-03-26 20:17:00,
2013-03-26 16:20:00,40.5,29.3,30.08,WNW,295,5.0,7.0,64,0.00,,OVC090,0.00,283.00,VWS V14.01,2013-03-26 20:20:00,
2013-03-26 16:22:00,40.6,29.0,30.08,SW,235,1.0,8.0,63,0.00,,OVC029,0.00,285.00,VWS V14.01,2013-03-26 20:22:00,
2013-03-26 16:27:00,40.5,28.9,30.08,North,355,3.0,6.0,63,0.00,,OVC029,0.00,181.00,VWS V14.01,2013-03-26 20:27:00,
2013-03-26 16:30:00,40.2,28.2,30.08,NW,315,5.0,8.0,62,0.00,,OVC090,0.00,109.00,VWS V14.01,2013-03-26 20:30:00,
2013-03-26 16:32:00,40.0,28.0,30.08,WNW,294,5.0,7.0,62,0.00,,OVC036,0.00,98.00,VWS V14.01,2013-03-26 20:32:00,
2013-03-26 16:37:00,39.6,28.1,30.08,NW,312,6.0,11.0,63,0.00,,OVC036,0.00,135.00,VWS V14.01,2013-03-26 20:37:00,
2013-03-26 16:40:00,39.5,28.0,30.09,NNW,333,3.0,9.0,63,0.00,,OVC090,0.00,111.00,VWS V14.01,2013-03-26 20:40:00,
2013-03-26 16:42:00,39.4,27.9,30.09,NNW,329,8.0,8.0,63,0.00,,OVC036,0.00,91.00,VWS V14.01,2013-03-26 20:42:00,
2013-03-26 16:47:00,39.2,27.7,30.08,NW,315,4.0,5.0,63,0.00,,OVC036,0.00,155.00,VWS V14.01,2013-03-26 20:47:00,
2013-03-26 16:50:00,39.2,28.1,30.08,NW,326,3.0,6.0,64,0.00,,OVC090,0.00,209.00,VWS V14.01,2013-03-26 20:50:00,
2013-03-26 16:52:00,39.2,28.1,30.09,NW,317,1.0,5.0,64,0.00,,OVC036,0.00,243.00,VWS V14.01,2013-03-26 20:52:00,
2013-03-26 16:57:00,39.5,28.4,30.08,NNW,333,3.0,4.0,64,0.00,,OVC036,0.00,229.00,VWS V14.01,2013-03-26 20:57:00,
2013-03-26 17:00:00,39.7,28.1,30.08,NNW,335,4.0,5.0,63,0.00,,OVC090,0.00,209.00,VWS V14.01,2013-03-26 21:00:00,
2013-03-26 17:02:00,39.7,28.1,30.08,NW,325,3.0,6.0,63,0.00,,OVC036,0.00,192.00,VWS V14.01,2013-03-26 21:02:00,
2013-03-26 17:07:00,39.9,28.3,30.08,NW,322,2.0,3.0,63,0.00,,OVC036,0.00,174.00,VWS V14.01,2013-03-26 21:07:00,
2013-03-26 17:10:00,39.9,28.7,30.09,NW,311,2.0,4.0,64,0.00,,OVC090,0.00,190.00,VWS V14.01,2013-03-26 21:10:00,
2013-03-26 17:12:00,39.9,28.3,30.09,NNW,329,4.0,5.0,63,0.00,,OVC036,0.00,186.00,VWS V14.01,2013-03-26 21:12:00,
2013-03-26 17:17:00,39.8,28.2,30.08,West,276,4.0,12.0,63,0.00,,OVC036,0.00,77.00,VWS V14.01,2013-03-26 21:17:00,
2013-03-26 17:20:00,39.6,27.7,30.09,NNW,330,5.0,10.0,62,0.00,,OVC090,0.00,51.00,VWS V14.01,2013-03-26 21:20:00,
2013-03-26 17:22:00,39.4,27.5,30.09,NW,321,5.0,6.0,62,0.00,,OVC036,0.00,60.00,VWS V14.01,2013-03-26 21:22:00,
2013-03-26 17:27:00,39.1,27.6,30.09,NNW,344,2.0,10.0,63,0.00,,OVC036,0.00,98.00,VWS V14.01,2013-03-26 21:27:00,
2013-03-26 17:30:00,38.9,27.8,30.09,NW,309,6.0,6.0,64,0.00,,OVC090,0.00,130.00,VWS V14.01,2013-03-26 21:30:00,
2013-03-26 17:32:00,38.8,28.1,30.09,NW,325,5.0,5.0,65,0.00,,OVC090,0.00,144.00,VWS V14.01,2013-03-26 21:32:00,
2013-03-26 17:37:00,38.9,28.1,30.09,NNW,339,5.0,5.0,65,0.00,,OVC090,0.00,146.00,VWS V14.01,2013-03-26 21:37:00,
2013-03-26 17:40:00,39.0,28.2,30.09,NNW,345,2.0,5.0,65,0.00,,OVC090,0.00,142.00,VWS V14.01,2013-03-26 21:40:00,
2013-03-26 17:43:00,39.0,28.2,30.09,NNW,345,2.0,5.0,65,0.00,,OVC090,0.00,142.00,VWS V14.01,2013-03-26 21:43:00,
2013-03-26 17:48:00,39.0,28.2,30.09,NNW,345,2.0,5.0,65,0.00,,OVC090,0.00,142.00,VWS V14.01,2013-03-26 21:48:00,
2013-03-26 17:50:00,39.1,28.0,30.09,NW,315,4.0,9.0,64,0.00,,FEW250,0.00,109.00,VWS V14.01,2013-03-26 21:50:00,
2013-03-26 17:53:00,39.0,28.2,30.09,NNW,345,2.0,5.0,65,0.00,,OVC090,0.00,142.00,VWS V14.01,2013-03-26 21:53:00,
2013-03-26 17:58:00,39.0,28.2,30.09,NNW,345,2.0,5.0,65,0.00,,OVC090,0.00,142.00,VWS V14.01,2013-03-26 21:58:00,
2013-03-26 18:00:00,39.1,28.0,30.09,NW,315,6.0,15.0,64,0.00,,OVC090,0.00,101.00,VWS V14.01,2013-03-26 22:00:00,
2013-03-26 18:03:00,39.0,28.2,30.09,NNW,345,2.0,5.0,65,0.00,,OVC090,0.00,142.00,VWS V14.01,2013-03-26 22:03:00,
2013-03-26 18:08:00,39.0,28.2,30.09,NNW,345,2.0,5.0,65,0.00,,OVC090,0.00,142.00,VWS V14.01,2013-03-26 22:08:00,
2013-03-26 18:10:00,38.4,27.7,30.09,West,270,6.0,13.0,65,0.00,,OVC090,0.00,97.00,VWS V14.01,2013-03-26 22:10:00,
2013-03-26 18:13:00,39.0,28.2,30.09,NNW,345,2.0,5.0,65,0.00,,OVC090,0.00,142.00,VWS V14.01,2013-03-26 22:13:00,
2013-03-26 18:18:00,39.0,28.2,30.09,NNW,345,2.0,5.0,65,0.00,,OVC090,0.00,142.00,VWS V14.01,2013-03-26 22:18:00,
2013-03-26 18:20:00,37.4,27.5,30.10,West,270,5.0,13.0,67,0.00,,OVC090,0.00,79.00,VWS V14.01,2013-03-26 22:20:00,
2013-03-26 18:23:00,39.0,28.2,30.09,NNW,345,2.0,5.0,65,0.00,,OVC090,0.00,142.00,VWS V14.01,2013-03-26 22:23:00,
2013-03-26 18:28:00,39.0,28.2,30.09,NNW,345,2.0,5.0,65,0.00,,OVC090,0.00,142.00,VWS V14.01,2013-03-26 22:28:00,
2013-03-26 18:30:00,36.5,27.0,30.11,WNW,292,6.0,13.0,68,0.00,,OVC090,0.00,57.00,VWS V14.01,2013-03-26 22:30:00,
2013-03-26 18:33:00,39.0,28.2,30.09,NNW,345,2.0,5.0,65,0.00,,OVC090,0.00,142.00,VWS V14.01,2013-03-26 22:33:00,
2013-03-26 18:38:00,39.0,28.2,30.09,NNW,345,2.0,5.0,65,0.00,,OVC090,0.00,142.00,VWS V14.01,2013-03-26 22:38:00,
2013-03-26 18:40:00,35.6,27.1,30.11,West,270,4.0,11.0,71,0.00,,OVC090,0.00,60.00,VWS V14.01,2013-03-26 22:40:00,
2013-03-26 18:43:00,39.0,28.2,30.09,NNW,345,2.0,5.0,65,0.00,,OVC090,0.00,142.00,VWS V14.01,2013-03-26 22:43:00,
2013-03-26 18:48:00,39.0,28.2,30.09,NNW,345,2.0,5.0,65,0.00,,OVC090,0.00,142.00,VWS V14.01,2013-03-26 22:48:00,
2013-03-26 18:50:00,35.4,27.3,30.11,West,270,3.0,8.0,72,0.00,,OVC090,0.00,69.00,VWS V14.01,2013-03-26 22:50:00,
2013-03-26 18:53:00,39.0,28.2,30.09,NNW,345,2.0,5.0,65,0.00,,OVC090,0.00,142.00,VWS V14.01,2013-03-26 22:53:00,
2013-03-26 18:58:00,39.0,28.2,30.09,NNW,345,2.0,5.0,65,0.00,,OVC090,0.00,142.00,VWS V14.01,2013-03-26 22:58:00,
2013-03-26 19:00:00,35.5,27.4,30.11,West,270,2.0,7.0,72,0.00,,OVC090,0.00,68.00,VWS V14.01,2013-03-26 23:00:00,
2013-03-26 19:03:00,39.0,28.2,30.09,NNW,345,2.0,5.0,65,0.00,,OVC090,0.00,142.00,VWS V14.01,2013-03-26 23:03:00,
2013-03-26 19:08:00,39.0,28.2,30.09,NNW,345,2.0,5.0,65,0.00,,OVC090,0.00,142.00,VWS V14.01,2013-03-26 23:08:00,
2013-03-26 19:10:00,36.1,28.0,30.11,West,270,2.0,6.0,72,0.00,,OVC090,0.00,68.00,VWS V14.01,2013-03-26 23:10:00,
2013-03-26 19:13:00,39.0,28.2,30.09,NNW,345,2.0,5.0,65,0.00,,OVC090,0.00,142.00,VWS V14.01,2013-03-26 23:13:00,
2013-03-26 19:18:00,39.0,28.2,30.09,NNW,345,2.0,5.0,65,0.00,,OVC090,0.00,142.00,VWS V14.01,2013-03-26 23:18:00,
2013-03-26 19:20:00,35.9,27.8,30.12,WSW,248,2.0,6.0,72,0.00,,OVC090,0.00,37.00,VWS V14.01,2013-03-26 23:20:00,
2013-03-26 19:23:00,39.0,28.2,30.09,NNW,345,2.0,5.0,65,0.00,,OVC090,0.00,142.00,VWS V14.01,2013-03-26 23:23:00,
2013-03-26 19:28:00,39.0,28.2,30.09,NNW,345,2.0,5.0,65,0.00,,OVC090,0.00,142.00,VWS V14.01,2013-03-26 23:28:00,
2013-03-26 19:30:00,35.7,27.6,30.12,West,270,2.0,5.0,72,0.00,,OVC090,0.00,18.00,VWS V14.01,2013-03-26 23:30:00,
2013-03-26 19:33:00,39.0,28.2,30.09,NNW,345,2.0,5.0,65,0.00,,OVC090,0.00,142.00,VWS V14.01,2013-03-26 23:33:00,
2013-03-26 19:38:00,39.0,28.2,30.09,NNW,345,2.0,5.0,65,0.00,,OVC090,0.00,142.00,VWS V14.01,2013-03-26 23:38:00,
2013-03-26 19:43:00,39.0,28.2,30.09,NNW,345,2.0,5.0,65,0.00,,OVC090,0.00,142.00,VWS V14.01,2013-03-26 23:43:00,
2013-03-26 20:00:00,35.4,27.0,30.12,WNW,290,1.0,1.0,71,0.00,,OVC090,0.00,0.00,VWS V14.01,2013-03-27 00:00:00,
2013-03-26 20:05:00,35.3,26.9,30.13,WNW,290,0.0,1.0,71,0.00,,OVC090,0.00,0.00,VWS V14.01,2013-03-27 00:05:00,
2013-03-26 20:10:00,35.2,27.1,30.13,WNW,290,0.0,3.0,72,0.00,,OVC090,0.00,0.00,VWS V14.01,2013-03-27 00:10:00,
2013-03-26 20:15:00,35.2,27.1,30.13,WNW,287,0.0,2.0,72,0.00,,OVC090,0.00,0.00,VWS V14.01,2013-03-27 00:15:00,
2013-03-26 20:20:00,35.2,27.1,30.13,WNW,300,1.0,3.0,72,0.00,,OVC090,0.00,0.00,VWS V14.01,2013-03-27 00:20:00,
2013-03-26 20:25:00,35.2,27.1,30.14,WNW,298,0.0,0.0,72,0.00,,OVC090,0.00,0.00,VWS V14.01,2013-03-27 00:25:00,
2013-03-26 20:30:00,35.1,27.0,30.14,WNW,298,0.0,2.0,72,0.00,,OVC090,0.00,0.00,VWS V14.01,2013-03-27 00:30:00,
2013-03-26 20:35:00,35.1,27.0,30.14,West,268,5.0,5.0,72,0.00,,BKN095,0.00,0.00,VWS V14.01,2013-03-27 00:35:00,
2013-03-26 20:40:00,35.1,27.0,30.14,West,277,1.0,4.0,72,0.00,,BKN095,0.00,0.00,VWS V14.01,2013-03-27 00:40:00,
2013-03-26 20:45:00,35.1,27.0,30.14,West,267,1.0,3.0,72,0.00,,BKN095,0.00,0.00,VWS V14.01,2013-03-27 00:45:00,
2013-03-26 20:50:00,35.1,27.0,30.14,West,278,0.0,7.0,72,0.00,,BKN095,0.00,0.00,VWS V14.01,2013-03-27 00:50:00,
2013-03-26 20:55:00,35.0,27.2,30.14,West,272,3.0,7.0,73,0.00,,BKN095,0.00,0.00,VWS V14.01,2013-03-27 00:55:00,
2013-03-26 21:00:00,35.0,27.2,30.14,WNW,284,1.0,6.0,73,0.00,,BKN095,0.00,0.00,VWS V14.01,2013-03-27 01:00:00,
2013-03-26 21:05:00,35.0,27.2,30.14,WNW,284,0.0,4.0,73,0.00,,BKN095,0.00,0.00,VWS V14.01,2013-03-27 01:05:00,
2013-03-26 21:10:00,34.9,27.1,30.14,West,262,6.0,6.0,73,0.00,,BKN095,0.00,0.00,VWS V14.01,2013-03-27 01:10:00,
2013-03-26 21:15:00,34.8,27.0,30.15,NW,309,0.0,5.0,73,0.00,,BKN095,0.00,0.00,VWS V14.01,2013-03-27 01:15:00,
2013-03-26 21:20:00,34.8,27.4,30.15,West,278,3.0,5.0,74,0.00,,BKN095,0.00,0.00,VWS V14.01,2013-03-27 01:20:00,
2013-03-26 21:25:00,34.9,27.5,30.15,WNW,284,4.0,6.0,74,0.00,,BKN095,0.00,0.00,VWS V14.01,2013-03-27 01:25:00,
2013-03-26 21:30:00,34.9,27.5,30.15,WNW,290,4.0,6.0,74,0.00,,BKN095,0.00,0.00,VWS V14.01,2013-03-27 01:30:00,
2013-03-26 21:35:00,34.9,27.5,30.16,West,264,3.0,4.0,74,0.00,,BKN090,0.00,0.00,VWS V14.01,2013-03-27 01:35:00,
2013-03-26 21:40:00,34.8,27.7,30.16,WSW,246,8.0,9.0,75,0.00,,BKN090,0.00,0.00,VWS V14.01,2013-03-27 01:40:00,
2013-03-26 21:45:00,34.8,27.7,30.16,SW,234,3.0,4.0,75,0.00,,BKN090,0.00,0.00,VWS V14.01,2013-03-27 01:45:00,
2013-03-26 21:50:00,34.8,27.7,30.16,NW,309,3.0,5.0,75,0.00,,BKN090,0.00,0.00,VWS V14.01,2013-03-27 01:50:00,
2013-03-26 21:55:00,34.8,27.7,30.16,NW,313,5.0,9.0,75,0.00,,BKN090,0.00,0.00,VWS V14.01,2013-03-27 01:55:00,
2013-03-26 22:00:00,34.8,27.7,30.16,WNW,284,2.0,8.0,75,0.00,,BKN090,0.00,0.00,VWS V14.01,2013-03-27 02:00:00,
2013-03-26 22:05:00,34.8,28.0,30.16,West,263,6.0,8.0,76,0.00,,BKN037,0.00,0.00,VWS V14.01,2013-03-27 02:05:00,
2013-03-26 22:10:00,34.8,28.0,30.16,West,275,0.0,4.0,76,0.00,,BKN037,0.00,0.00,VWS V14.01,2013-03-27 02:10:00,
2013-03-26 22:15:00,34.8,28.0,30.16,WSW,254,3.0,7.0,76,0.00,,BKN037,0.00,0.00,VWS V14.01,2013-03-27 02:15:00,
2013-03-26 22:20:00,34.7,27.9,30.16,WNW,287,2.0,11.0,76,0.00,,BKN037,0.00,0.00,VWS V14.01,2013-03-27 02:20:00,
2013-03-26 22:25:00,34.7,28.2,30.16,WNW,285,6.0,7.0,77,0.00,,BKN037,0.00,0.00,VWS V14.01,2013-03-27 02:25:00,
2013-03-26 22:30:00,34.7,28.2,30.16,SW,229,4.0,6.0,77,0.00,,BKN037,0.00,0.00,VWS V14.01,2013-03-27 02:30:00,
2013-03-26 22:35:00,34.6,28.1,30.16,West,261,2.0,7.0,77,0.00,,BKN037,0.00,0.00,VWS V14.01,2013-03-27 02:35:00,
2013-03-26 22:40:00,34.6,28.1,30.16,WNW,282,3.0,6.0,77,0.00,,BKN037,0.00,0.00,VWS V14.01,2013-03-27 02:40:00,
2013-03-26 22:45:00,34.5,29.9,30.17,WNW,302,8.0,9.0,83,0.00,,BKN037,0.00,0.00,VWS V14.01,2013-03-27 02:45:00,
2013-03-26 22:50:00,34.4,28.0,30.16,WNW,286,3.0,6.0,77,0.00,,BKN037,0.00,0.00,VWS V14.01,2013-03-27 02:50:00,
2013-03-26 22:55:00,34.4,28.3,30.17,WNW,297,2.0,3.0,78,0.00,,BKN037,0.00,0.00,VWS V14.01,2013-03-27 02:55:00,
2013-03-26 23:00:00,34.4,28.3,30.16,WNW,292,3.0,4.0,78,0.00,,BKN037,0.00,0.00,VWS V14.01,2013-03-27 03:00:00,
2013-03-26 23:05:00,34.4,28.3,30.16,WNW,284,3.0,3.0,78,0.00,,OVC023,0.00,0.00,VWS V14.01,2013-03-27 03:05:00,
2013-03-26 23:10:00,34.4,28.3,30.16,WNW,282,6.0,6.0,78,0.00,,OVC023,0.00,0.00,VWS V14.01,2013-03-27 03:10:00,
2013-03-26 23:15:00,34.4,28.3,30.17,West,277,2.0,4.0,78,0.00,,OVC023,0.00,0.00,VWS V14.01,2013-03-27 03:15:00,
2013-03-26 23:20:00,34.4,28.6,30.17,WSW,242,0.0,3.0,79,0.00,,OVC023,0.00,0.00,VWS V14.01,2013-03-27 03:20:00,
2013-03-26 23:25:00,34.3,28.5,30.17,West,266,2.0,6.0,79,0.00,,OVC023,0.00,0.00,VWS V14.01,2013-03-27 03:25:00,
2013-03-26 23:30:00,34.2,28.4,30.17,WNW,285,1.0,3.0,79,0.00,,OVC023,0.00,0.00,VWS V14.01,2013-03-27 03:30:00,
2013-03-26 23:35:00,34.1,28.3,30.17,West,281,2.0,3.0,79,0.00,,OVC023,0.00,0.00,VWS V14.01,2013-03-27 03:35:00,
2013-03-26 23:40:00,34.1,28.3,30.17,West,259,4.0,4.0,79,0.00,,OVC023,0.00,0.00,VWS V14.01,2013-03-27 03:40:00,
2013-03-26 23:45:00,34.0,28.5,30.17,WNW,297,4.0,4.0,80,0.00,,OVC023,0.00,0.00,VWS V14.01,2013-03-27 03:45:00,
2013-03-26 23:50:00,34.0,28.5,30.17,West,281,3.0,9.0,80,0.00,,OVC023,0.00,0.00,VWS V14.01,2013-03-27 03:50:00,
2013-03-26 23:55:00,33.9,28.4,30.17,WNW,298,3.0,4.0,80,0.00,,OVC023,0.00,0.00,VWS V14.01,2013-03-27 03:55:00,